This demonstration page uses our WeatherBlox Daily Observations layout. Learn more.

Left ArrowRight Arrow

39.01783, -85.05884

Hourly Observations for May 23, 2015

Temp ( °F °C ) Dew Point ( °F °C ) Humidity (%) Winds ( mph kmh ) Pressure ( in mb ) Visibility ( mi km ) Precip ( " mm )
12:52 am 00:52 Clear 52 11.1 46 7.8 80 80 Calm 30.28 1025 10 16 0.00 0.00
1:52 am 01:52 Clear 52 11.1 47 8.3 83 83 Calm 30.27 1025 10 16 0.00 0.00
2:52 am 02:52 Mostly Clear 51 10.6 47 8.3 86 86 Calm 30.28 1025 10 16 0.00 0.00
3:52 am 03:52 Mostly Cloudy 53 11.7 47 8.3 80 80 Calm 30.28 1025 10 16 0.00 0.00
4:52 am 04:52 Mostly Cloudy 50 10 46 7.8 86 86 Calm 30.30 1026 10 16 0.00 0.00
5:52 am 05:52 Mostly Cloudy 56 13.3 49 9.4 77 77 N 5 7 30.31 1027 10 16 0.00 0.00
6:52 am 06:52 Cloudy 55 12.8 49 9.4 80 80 ESE 3 6 30.33 1027 10 16 0.00 0.00
7:52 am 07:52 Cloudy 58 14.4 49 9.4 72 72 E 5 7 30.35 1028 10 16 0.00 0.00
8:52 am 08:52 Mostly Cloudy 61 16.1 50 10 67 67 E 3 6 30.37 1028 10 16 0.00 0.00
9:52 am 09:52 Mostly Cloudy 65 18.3 51 10.6 61 61 SE 6 9 30.37 1029 10 16 0.00 0.00
10:52 am 10:52 Mostly Cloudy 69 20.6 52 11.1 55 55 Calm 30.38 1029 10 16 0.00 0.00
11:52 am 11:52 Mostly Cloudy 73 22.8 51 10.6 46 46 Calm 30.38 1029 10 16 0.00 0.00
12:52 pm 12:52 Mostly Cloudy 75 23.9 48 8.9 39 39 S 9 15 30.37 1028 10 16 0.00 0.00
1:52 pm 13:52 Partly Cloudy 76 24.4 46 7.8 35 35 S 9 15 30.35 1028 10 16 0.00 0.00
3:52 pm 15:52 Partly Cloudy 78 25.6 45 7.2 31 31 SSE 3 6 30.32 1027 10 16 0.00 0.00
4:52 pm 16:52 Partly Cloudy 79 26.1 44 6.7 29 29 Calm 30.29 1026 10 16 0.00 0.00
5:52 pm 17:52 Mostly Cloudy 78 25.6 44 6.7 30 30 SSW 7 11 30.28 1025 10 16 0.00 0.00
6:52 pm 18:52 Mostly Cloudy 77 25 46 7.8 33 33 SE 8 13 30.26 1025 10 16 0.00 0.00
7:52 pm 19:52 Partly Cloudy 73 22.8 49 9.4 43 43 SSE 9 15 30.25 1025 10 16 0.00 0.00
8:52 pm 20:52 Partly Cloudy 69 20.6 45 7.2 42 42 SSE 5 7 30.25 1025 10 16 0.00 0.00
9:52 pm 21:52 Partly Cloudy 67 19.4 45 7.2 45 45 ESE 3 6 30.26 1025 10 16 0.00 0.00
10:52 pm 22:52 Partly Cloudy 65 18.3 47 8.3 52 52 SE 5 7 30.27 1025 10 16 0.00 0.00
11:52 pm 23:52 Partly Cloudy 64 17.8 47 8.3 54 54 SE 5 7 30.26 1025 10 16 0.00 0.00

Powered by AerisWeather